logo tempoitalia

Diretta Meteo Altus-Quartz Mtn, Stati Uniti (USA)lunedì 31 agosto ore 00:15

Mappa
Sereno 30 °C Sereno 24 Ore: T.min 25 T.max 39
Ponente Sud/Sud-Est Km/h 25.9 Punto di rugiada: 12 °C Umidità: 33% Visibilità: 10 Km
Il sole sorge alle: 07:09 Il sole tramonta alle: 20:05
31 Agosto 2026 00:15 tempo osservato: Sereno Sereno 30 33 1013 vento: Nord S/SE 25.9
30 Agosto 2026 23:51 tempo osservato: Sereno Sereno 30 33 1013 vento: Nord SE 24
30 Agosto 2026 23:40 tempo osservato: Sereno Sereno 30 33 1013 vento: Nord SE 24
30 Agosto 2026 23:21 tempo osservato: Sereno Sereno 31 33 1013 vento: Nord SE 25.9
30 Agosto 2026 21:54 tempo osservato: Sereno Sereno 33 29 1012 vento: Nord SE 20.3
30 Agosto 2026 21:31 tempo osservato: Sereno Sereno 33 29 1012 vento: Nord SE 20.3
30 Agosto 2026 20:56 tempo osservato: Sereno Sereno 34 28 1012 vento: Nord SE 18.5
30 Agosto 2026 20:32 tempo osservato: Sereno Sereno 34 28 1011 vento: Nord SE 20.3
30 Agosto 2026 20:15 tempo osservato: Sereno Sereno 35 26 1011 vento: Nord S/SE 18.5
30 Agosto 2026 19:55 tempo osservato: Sereno Sereno 36 25 1011 vento: Nord S/SE 24
30 Agosto 2026 19:35 tempo osservato: Sereno Sereno 37 23 1011 vento: Nord S/SE 20.3
30 Agosto 2026 19:15 tempo osservato: Sereno Sereno 38 22 1011 vento: Nord S 27.8
30 Agosto 2026 18:55 tempo osservato: Sereno Sereno 38 22 1011 vento: Nord S 22.2
30 Agosto 2026 18:35 tempo osservato: Sereno Sereno 39 21 1011 vento: Nord S/SE 27.8
30 Agosto 2026 18:15 tempo osservato: Sereno Sereno 39 21 1011 vento: Nord S/SE 18.5
30 Agosto 2026 17:55 tempo osservato: Sereno Sereno 39 21 1011 vento: Nord S 25.9
30 Agosto 2026 17:35 tempo osservato: Sereno Sereno 39 22 1011 vento: Nord S 29.6
30 Agosto 2026 17:15 tempo osservato: Sereno Sereno 39 21 1011 vento: Nord S/SO 18.5
30 Agosto 2026 16:55 tempo osservato: Sereno Sereno 39 22 1011 vento: Nord S 16.7
30 Agosto 2026 16:35 tempo osservato: Sereno Sereno 39 22 1011 vento: Nord S/SE 25.9
30 Agosto 2026 16:15 tempo osservato: Sereno Sereno 39 22 1012 vento: Nord S 20.3
30 Agosto 2026 15:55 tempo osservato: Poco Nuvoloso Poco Nuvoloso 39 22 1012 vento: Nord S/SE 22.2
30 Agosto 2026 15:35 tempo osservato: Poco Nuvoloso Poco Nuvoloso 39 24 1012 vento: Nord S 27.8
30 Agosto 2026 15:15 tempo osservato: Nuvoloso Nuvoloso 39 24 1012 vento: Nord S 22.2
30 Agosto 2026 14:55 tempo osservato: Nuvoloso Nuvoloso 39 24 1013 vento: Nord S 18.5
30 Agosto 2026 14:35 tempo osservato: Foschia Foschia 39 24 1013 vento: Nord S 27.8
30 Agosto 2026 14:15 tempo osservato: Foschia Foschia 39 24 1013 vento: Nord S 22.2
30 Agosto 2026 13:55 tempo osservato: Foschia Foschia 38 27 1013 vento: Nord S 31.5
30 Agosto 2026 13:35 tempo osservato: Sereno Sereno 38 27 1014 vento: Nord S 29.6
30 Agosto 2026 13:15 tempo osservato: Sereno Sereno 38 29 1014 vento: Nord S/SO 31.5
30 Agosto 2026 12:55 tempo osservato: Sereno Sereno 38 29 1014 vento: Nord S/SO 29.6
30 Agosto 2026 12:35 tempo osservato: Sereno Sereno 37 30 1015 vento: Nord S 29.6
30 Agosto 2026 12:15 tempo osservato: Sereno Sereno 36 32 1015 vento: Nord S/SO 27.8
30 Agosto 2026 11:55 tempo osservato: Sereno Sereno 36 32 1015 vento: Nord SO 22.2
30 Agosto 2026 11:35 tempo osservato: Sereno Sereno 35 34 1016 vento: Nord S/SO 27.8
30 Agosto 2026 11:15 tempo osservato: Sereno Sereno 35 34 1015 vento: Nord S/SO 25.9
30 Agosto 2026 10:55 tempo osservato: Sereno Sereno 34 36 1015 vento: Nord SO 27.8
30 Agosto 2026 10:35 tempo osservato: Sereno Sereno 33 38 1016 vento: Nord S/SO 27.8
30 Agosto 2026 10:15 tempo osservato: Sereno Sereno 33 38 1016 vento: Nord S 29.6
30 Agosto 2026 09:55 tempo osservato: Sereno Sereno 32 40 1016 vento: Nord S/SO 24
30 Agosto 2026 09:35 tempo osservato: Sereno Sereno 32 40 1016 vento: Nord S/SO 24
30 Agosto 2026 09:15 tempo osservato: Sereno Sereno 30 45 1016 vento: Nord S 25.9
30 Agosto 2026 08:55 tempo osservato: Sereno Sereno 29 48 1016 vento: Nord S 22.2
30 Agosto 2026 08:31 tempo osservato: Sereno Sereno 28 51 1016 vento: Nord S/SE 18.5
30 Agosto 2026 08:18 tempo osservato: Sereno Sereno 27 54 1015 vento: Nord S/SE 20.3
30 Agosto 2026 07:47 tempo osservato: Sereno Sereno 26 54 1015 vento: Nord S/SE 16.7
30 Agosto 2026 07:24 tempo osservato: Sereno Sereno 25 57 1015 vento: Nord SE 14.8
30 Agosto 2026 06:55 tempo osservato: Sereno Sereno 25 57 1014 vento: Nord SE 13
30 Agosto 2026 06:35 tempo osservato: Sereno Sereno 25 57 1014 vento: Nord SE 14.8
30 Agosto 2026 06:15 tempo osservato: Sereno Sereno 25 57 1014 vento: Nord SE 11.1
30 Agosto 2026 05:55 tempo osservato: Sereno Sereno 25 53 1014 vento: Nord SE 13
30 Agosto 2026 05:35 tempo osservato: Sereno Sereno 25 53 1014 vento: Nord SE 13
30 Agosto 2026 05:09 tempo osservato: Sereno Sereno 26 50 1014 vento: Nord SE 16.7
30 Agosto 2026 04:55 tempo osservato: Sereno Sereno 26 50 1014 vento: Nord SE 14.8
30 Agosto 2026 04:35 tempo osservato: Sereno Sereno 26 50 1014 vento: Nord S/SE 14.8
30 Agosto 2026 04:15 tempo osservato: Sereno Sereno 26 50 1014 vento: Nord S/SE 14.8
30 Agosto 2026 03:51 tempo osservato: Sereno Sereno 28 42 1014 vento: Nord S/SE 18.5
30 Agosto 2026 03:35 tempo osservato: Sereno Sereno 28 42 1014 vento: Nord S 18.5
30 Agosto 2026 03:08 tempo osservato: Sereno Sereno 28 42 1014 vento: Nord S/SE 18.5
30 Agosto 2026 03:04 tempo osservato: Sereno Sereno 28 42 1014 vento: Nord S/SE 18.5
30 Agosto 2026 02:12 tempo osservato: Sereno Sereno 28 42 1014 vento: Nord S/SE 18.5
30 Agosto 2026 01:55 tempo osservato: Sereno Sereno 28 42 1014 vento: Nord SE 18.5
30 Agosto 2026 01:29 tempo osservato: Sereno Sereno 29 39 1014 vento: Nord S/SE 20.3
30 Agosto 2026 01:12 tempo osservato: Sereno Sereno 29 39 1014 vento: Nord S/SE 22.2
30 Agosto 2026 00:51 tempo osservato: Sereno Sereno 30 37 1014 vento: Nord S/SE 22.2
30 Agosto 2026 00:40 tempo osservato: Sereno Sereno 30 37 1014 vento: Nord S/SE 24